Location: El Barbasco
(9.9682°N, 67.7441°W)
Time: 01:49:22
(UTC+00:00)

Cosmos 614 Rocket - Pass Details

Date: 05 August 2024
Orbit: 730 x 760 km, 74.1° (Epoch: 09 September)

Event Time Altitude Azimuth Distance (km) Brightness Sun altitude
Rises 23:13:43 0° 357° (N) 3,149 7.5 -5.8°
Reaches altitude 10° 23:16:08 10° 3° (N) 2,231 6.6 -6.4°
Maximum altitude 23:20:59 48° 77° (ENE) 964 4.2 -7.5°
Drops below altitude 10° 23:25:53 10° 150° (SSE) 2,250 6.0 -8.7°
Sets 23:28:19 0° 156° (SSE) 3,179 6.8 -9.2°
